Wind_Speed
16 15 16 15 15 14 13 13 14 17 20 20 19 18 16 15 14 13 12 11 11 11 10 10 10 10 11 12 13 13 13 12 12 13 12 12 12 11 10 10 9 8 8
18 17 17 15 15 15 13 12 13 15 16 17 16 16 15 15 14 12 11 11 10 10 10 10 10 11 11 11 11 11 11 12 11 11 11 11 11 11 11 9 8 7 7
17 18 17 16 14 14 13 12 12 13 14 13 13 13 12 12 12 12 11 11 11 10 10 9 8 9 8 9 9 10 10 11 10 9 10 10 10 10 9 8 8 7 7
17 18 17 16 14 13 11 11 11 12 13 13 12 11 10 10 10 10 10 11 11 11 10 8 7 7 7 7 7 8 8 7 6 7 9 9 9 9 10 10 9 7 8
18 19 18 16 14 12 10 10 11 11 12 12 12 11 10 9 9 9 9 9 10 11 11 9 8 6 6 5 6 6 5 4 5 4 5 7 8 8 9 9 9 9 8
19 19 18 16 14 11 10 10 10 10 10 11 11 10 9 8 8 8 8 9 9 8 7 7 6 5 4 4 4 3 2 1 2 4 5 6 6 7 7 7 7 8 9
17 18 17 15 13 11 10 9 9 9 9 10 9 8 7 7 8 8 8 8 8 8 7 6 5 3 2 1 0 2 3 3 3 4 5 5 9 10 6 6 7 8 9
16 16 15 15 13 12 11 9 8 9 10 10 9 8 8 8 9 9 9 8 7 6 6 5 4 3 2 2 1 2 4 6 7 6 7 8 10 10 8 8 8 10 11
16 16 16 15 15 13 12 10 9 10 10 10 9 8 8 8 9 10 8 7 7 5 4 3 2 1 0 1 2 3 4 7 7 9 9 9 10 11 10 10 11 13 14
16 16 16 16 15 14 12 11 10 10 10 9 7 6 6 7 7 6 4 5 5 5 4 3 2 1 1 1 2 4 6 7 9 9 9 10 12 13 13 13 13 14 15
15 14 14 14 15 14 13 12 11 9 8 7 5 5 6 5 5 4 4 2 1 0 1 1 2 2 1 1 3 4 4 6 7 9 9 9 10 11 12 13 16 17 16
14 12 11 12 12 12 12 11 10 9 8 7 6 5 5 4 3 2 3 4 6 6 6 5 4 4 4 3 4 4 5 6 5 6 7 10 12 13 12 13 14 17 19
13 12 11 9 9 9 9 8 8 7 7 7 7 7 7 6 5 5 7 8 8 10 10 9 8 7 9 10 10 11 10 10 12 11 11 13 15 16 16 16 18 18 16
14 12 11 10 9 8 6 6 7 6 7 10 10 9 9 9 9 10 10 11 10 11 11 11 12 12 13 14 14 13 12 13 13 15 15 18 19 19 19 20 22 21 22
11 11 11 10 10 9 8 8 7 8 7 6 7 8 10 9 8 10 11 12 13 14 15 16 17 18 18 18 18 18 17 17 16 14 16 19 21 22 21 22 23 25 26
10 11 10 9 8 10 11 10 9 9 10 11 13 15 15 11 11 12 13 13 14 15 14 14 15 16 16 15 15 14 15 16 18 18 17 18 17 18 20 18 20 21 23
10 9 9 8 7 6 6 7 6 6 6 7 7 6 6 7 9 10 9 11 12 13 11 12 12 12 13 13 11 9 10 11 10 9 11 11 11 9 13 15 17 16 16
6 5 6 8 6 4 3 3 2 1 2 2 3 3 2 2 3 5 7 7 7 8 9 11 11 11 10 10 8 4 2 2 2 4 5 7 9 10 10 12 14 17 17
3 8 11 10 7 3 2 2 3 3 3 4 5 5 6 6 5 5 4 5 5 6 7 7 8 7 6 3 1 4 5 5 5 5 7 8 9 10 11 12 13 15 15
10 13 13 10 7 4 2 2 3 4 4 5 6 7 7 6 6 6 6 7 7 7 7 7 9 9 6 3 4 5 5 4 7 7 11 14 14 13 12 13 14 14 16
11 11 10 7 6 4 3 1 2 4 6 6 8 8 8 8 8 8 8 9 10 10 13 13 13 12 13 5 4 2 1 2 8 7 10 17 16 15 14 14 16 18 19
9 8 9 10 9 6 3 2 3 4 6 7 9 9 10 9 10 11 11 12 13 14 14 16 17 18 19 18 6 3 2 1 13 6 14 19 21 20 16 16 21 20 19
9 11 10 10 10 8 4 4 1 2 4 7 8 8 10 10 12 12 13 13 15 16 18 19 20 21 21 20 20 12 5 6 11 8 15 19 21 22 19 18 24 19 22
10 10 10 11 11 8 6 4 3 1 3 6 8 10 11 11 13 13 14 14 15 17 18 20 20 21 20 22 21 21 18 15 11 9 18 27 26 27 25 23 29 17 28
10 9 11 12 12 10 8 6 4 4 6 9 10 10 10 12 13 13 13 13 15 17 19 19 20 21 22 21 22 20 20 18 22 16 22 36 35 33 28 28 27 19 30
14 12 12 14 13 11 8 6 5 5 8 10 10 10 11 11 12 12 12 13 15 16 17 19 19 20 21 22 22 22 24 23 23 22 26 33 34 34 31 32 25 28 32
Wind_Direction
172 154 143 135 128 122 111 105 106 113 116 117 115 112 106 100 95 93 95 98 99 101 114 118 113 109 104 101 101 101 99 95 88 81 73 70 70 65 62 63 64 62 60
162 154 146 140 134 132 124 115 112 117 121 119 116 112 106 99 93 89 93 94 99 106 104 108 109 105 100 100 100 98 96 89 87 80 71 71 70 62 52 50 50 49 51
155 152 148 144 141 139 135 128 123 122 126 125 120 116 112 108 104 98 95 94 97 106 104 102 96 90 91 100 101 101 103 93 89 78 67 64 61 56 54 45 37 31 30
156 152 150 147 145 144 143 138 133 129 129 131 127 123 118 113 109 105 102 104 106 108 110 109 102 93 89 91 96 101 102 90 75 63 47 44 40 43 43 41 33 27 15
153 151 152 149 148 147 149 143 137 131 131 131 128 123 119 117 115 109 101 100 107 118 122 121 118 113 109 114 121 121 109 86 70 66 45 34 32 31 32 31 35 26 15
149 152 151 152 151 153 154 148 141 134 131 129 126 120 112 106 109 111 107 103 99 100 107 118 125 126 129 140 157 169 160 125 7 360 0 6 4 358 7 12 11 16 10
149 153 154 155 152 152 151 148 142 133 129 124 119 112 107 104 98 95 96 98 99 103 107 111 115 108 97 79 144 204 208 239 284 317 339 338 338 337 311 324 332 342 355
153 159 158 156 154 150 148 144 137 133 131 126 123 117 110 108 100 90 81 77 78 83 90 104 119 135 149 174 205 250 253 254 265 286 296 313 322 327 317 305 316 323 325
155 159 161 159 154 151 148 145 143 142 140 143 142 134 122 116 110 107 100 98 94 91 90 83 71 58 293 264 270 274 281 287 287 281 282 291 298 302 314 309 304 302 303
153 158 160 157 153 151 152 152 151 152 155 156 150 145 140 124 120 115 103 103 85 72 78 74 54 310 261 272 296 296 291 294 296 298 305 314 317 310 298 301 308 302 292
157 158 156 155 155 156 156 158 163 162 159 161 163 170 173 159 155 170 165 157 182 326 316 328 348 2 357 359 11 4 342 326 298 289 292 311 320 327 327 310 305 297 293
168 164 162 158 158 162 166 168 171 174 171 178 177 173 178 175 176 227 260 282 303 296 301 286 293 293 296 296 308 321 328 334 333 339 327 321 314 309 307 307 306 306 300
181 182 171 161 173 170 185 183 183 192 194 196 203 215 228 235 229 247 262 273 294 298 288 289 297 287 287 292 295 299 302 311 313 310 308 300 294 296 295 293 293 291 293
179 183 187 185 182 181 178 188 223 230 233 232 235 235 244 249 256 259 270 272 281 282 288 293 297 300 300 301 303 304 305 293 285 286 287 292 297 304 305 298 296 295 291
176 175 182 193 195 195 203 208 223 237 248 258 260 264 259 256 263 275 274 274 274 280 285 291 295 295 297 296 292 291 288 291 290 285 282 287 290 295 298 295 294 294 293
169 169 166 176 188 205 213 209 226 242 257 265 271 276 273 274 277 275 278 285 282 286 289 292 293 292 293 292 287 284 283 275 279 281 284 289 293 295 297 295 291 296 293
165 167 166 165 166 187 194 203 220 244 266 282 283 279 274 270 268 278 274 278 284 286 304 303 301 299 301 301 303 305 286 284 280 284 288 294 304 322 310 307 301 303 310
154 179 198 187 165 169 163 146 129 0 317 334 357 3 356 338 318 307 301 303 306 310 307 302 306 308 304 298 290 276 251 233 69 28 10 351 352 351 344 324 321 315 308
190 231 194 174 164 167 142 100 72 58 49 59 61 65 61 56 48 33 32 30 15 1 352 355 352 347 342 332 82 131 125 92 51 19 358 350 353 338 329 325 321 317 314
171 175 184 165 156 169 160 102 56 58 68 79 78 70 62 57 56 43 48 50 39 29 36 37 33 31 44 89 124 138 124 65 26 12 15 7 357 348 338 332 328 325 321
166 177 182 173 165 196 189 26 29 74 79 80 78 74 69 65 62 60 58 60 59 60 59 60 58 63 65 102 140 152 88 30 349 0 9 6 2 358 351 345 342 338 334
173 173 165 172 169 186 214 316 1 82 95 82 79 82 78 75 77 76 73 70 68 66 65 61 56 55 57 62 103 106 88 359 327 351 13 9 9 6 5 357 351 345 343
179 177 179 188 198 203 228 302 359 88 98 94 93 91 95 94 91 84 77 68 64 61 57 55 54 51 50 53 54 64 54 13 358 351 359 7 9 8 2 355 353 343 346
183 177 185 192 204 205 223 245 253 171 126 121 115 111 105 99 91 83 75 68 60 55 53 50 49 51 49 48 46 45 43 37 17 343 350 355 6 5 1 356 353 347 345
188 182 184 184 191 194 205 231 265 188 151 136 124 118 111 96 88 81 74 68 61 54 50 47 44 43 43 41 42 39 34 27 17 6 344 348 352 359 357 355 353 344 344
188 190 190 187 189 194 209 215 214 188 148 136 129 125 108 97 89 82 76 68 61 56 51 46 42 41 40 37 34 28 25 20 10 4 345 342 342 348 351 355 351 346 345
Height
1538 1540 1541 1542 1544 1545 1545 1545 1545 1544 1545 1545 1546 1546 1546 1547 1547 1547 1547 1548 1548 1549 1549 1549 1549 1549 1550 1550 1550 1550 1551 1551 1552 1552 1552 1552 1551 1551 1551 1550 1550 1549 1549
1538 1540 1542 1544 1545 1546 1547 1547 1547 1546 1547 1547 1548 1548 1549 1549 1549 1550 1550 1550 1550 1550 1551 1551 1551 1551 1551 1551 1552 1553 1553 1554 1554 1554 1554 1553 1552 1552 1552 1552 1551 1551 1550
1539 1541 1544 1545 1547 1548 1548 1548 1549 1548 1549 1549 1550 1551 1551 1551 1551 1552 1552 1552 1552 1552 1553 1553 1554 1554 1554 1553 1554 1554 1555 1556 1556 1556 1555 1555 1554 1553 1553 1553 1553 1553 1552
1540 1542 1545 1547 1548 1549 1549 1550 1550 1550 1550 1551 1552 1553 1553 1553 1553 1554 1554 1553 1553 1554 1554 1555 1555 1555 1555 1555 1555 1556 1556 1556 1557 1557 1557 1557 1556 1555 1554 1554 1554 1553 1554
1540 1543 1546 1548 1550 1551 1551 1551 1552 1552 1552 1553 1553 1554 1554 1554 1555 1555 1555 1556 1555 1555 1555 1556 1556 1556 1556 1556 1556 1556 1557 1557 1557 1557 1557 1557 1557 1556 1556 1555 1554 1554 1554
1542 1544 1546 1548 1550 1552 1552 1553 1553 1553 1554 1554 1555 1555 1556 1556 1556 1556 1556 1556 1556 1557 1557 1557 1557 1558 1558 1558 1558 1558 1558 1558 1558 1558 1557 1557 1557 1557 1556 1555 1555 1554 1554
1544 1546 1547 1549 1551 1552 1554 1554 1555 1555 1555 1556 1556 1557 1557 1558 1558 1558 1557 1557 1557 1557 1557 1558 1559 1559 1559 1559 1559 1559 1559 1559 1558 1558 1557 1557 1557 1556 1555 1555 1555 1555 1554
1544 1547 1548 1550 1551 1552 1554 1556 1556 1556 1556 1556 1557 1557 1558 1558 1559 1559 1559 1559 1559 1558 1558 1558 1558 1559 1559 1559 1559 1558 1558 1558 1558 1558 1557 1557 1556 1555 1555 1554 1554 1554 1554
1545 1548 1549 1550 1551 1552 1553 1555 1556 1556 1556 1556 1557 1557 1558 1559 1559 1559 1559 1559 1558 1558 1558 1558 1558 1558 1558 1558 1558 1557 1557 1556 1556 1556 1556 1556 1555 1555 1555 1554 1553 1553 1553
1546 1549 1550 1550 1551 1552 1553 1554 1556 1556 1556 1557 1558 1558 1559 1559 1559 1559 1559 1559 1559 1559 1559 1559 1558 1558 1558 1558 1557 1557 1557 1556 1555 1555 1555 1555 1554 1554 1553 1553 1552 1551 1550
1548 1550 1551 1551 1552 1552 1553 1554 1555 1557 1557 1558 1558 1558 1559 1559 1559 1559 1559 1559 1559 1559 1559 1558 1558 1558 1557 1557 1557 1556 1556 1555 1554 1554 1553 1553 1552 1551 1551 1550 1550 1549 1548
1549 1551 1553 1552 1553 1553 1554 1555 1556 1557 1557 1558 1558 1559 1559 1559 1558 1558 1559 1559 1559 1559 1558 1558 1558 1558 1558 1557 1556 1556 1555 1554 1553 1553 1552 1551 1549 1548 1547 1546 1545 1545 1545
1550 1552 1553 1553 1554 1555 1556 1557 1557 1558 1557 1558 1558 1559 1559 1559 1558 1558 1558 1558 1558 1558 1558 1558 1557 1557 1556 1556 1556 1555 1554 1553 1552 1551 1550 1548 1545 1544 1543 1543 1542 1541 1539
1550 1551 1552 1553 1554 1555 1555 1556 1557 1558 1557 1558 1558 1558 1558 1558 1557 1557 1557 1556 1556 1556 1556 1556 1556 1556 1555 1554 1554 1553 1552 1550 1548 1548 1546 1544 1543 1543 1541 1540 1538 1537 1536
1550 1550 1551 1553 1554 1555 1554 1555 1556 1557 1557 1557 1557 1557 1557 1556 1555 1555 1555 1554 1554 1554 1554 1553 1554 1553 1553 1552 1550 1549 1548 1546 1544 1544 1542 1541 1540 1539 1538 1536 1535 1533 1530
1549 1549 1550 1551 1553 1555 1553 1553 1554 1555 1556 1556 1555 1554 1554 1553 1553 1553 1552 1551 1551 1551 1550 1550 1550 1550 1549 1548 1546 1544 1544 1541 1541 1540 1539 1537 1536 1534 1533 1531 1529 1528 1526
1548 1548 1550 1550 1552 1554 1553 1552 1553 1554 1555 1555 1554 1552 1552 1551 1551 1550 1550 1549 1548 1548 1547 1547 1547 1546 1546 1545 1543 1542 1540 1539 1538 1538 1537 1535 1533 1531 1529 1527 1525 1525 1523
1547 1547 1550 1549 1551 1554 1554 1554 1553 1553 1554 1554 1553 1552 1551 1550 1549 1549 1548 1547 1546 1546 1545 1545 1544 1544 1542 1540 1540 1540 1538 1538 1537 1536 1535 1534 1532 1530 1527 1525 1523 1521 1519
1543 1548 1552 1550 1550 1554 1555 1556 1555 1553 1554 1552 1551 1551 1550 1550 1550 1549 1547 1546 1546 1544 1544 1543 1543 1542 1540 1538 1538 1537 1536 1537 1537 1537 1535 1533 1531 1529 1527 1524 1521 1519 1517
1547 1549 1551 1549 1549 1554 1556 1557 1556 1554 1554 1553 1552 1551 1551 1551 1550 1549 1548 1547 1546 1545 1544 1543 1542 1541 1539 1537 1538 1538 1536 1537 1536 1536 1534 1532 1530 1527 1524 1522 1519 1516 1513
1548 1548 1548 1546 1549 1555 1556 1557 1557 1555 1554 1554 1552 1551 1551 1552 1551 1550 1549 1548 1547 1545 1544 1543 1544 1541 1540 1538 1537 1539 1537 1536 1536 1535 1534 1532 1529 1526 1523 1520 1517 1514 1511
1546 1546 1545 1547 1551 1554 1556 1557 1557 1556 1555 1553 1553 1553 1553 1553 1552 1551 1551 1550 1548 1547 1546 1545 1543 1542 1540 1539 1538 1538 1538 1539 1537 1534 1534 1532 1529 1525 1522 1519 1515 1511 1508
1546 1546 1547 1548 1552 1552 1555 1556 1556 1557 1556 1554 1553 1554 1555 1555 1553 1553 1552 1553 1551 1549 1547 1547 1544 1541 1541 1541 1539 1539 1538 1541 1536 1534 1533 1531 1529 1524 1521 1517 1514 1509 1506
1545 1546 1547 1548 1551 1552 1555 1557 1557 1556 1556 1556 1556 1556 1557 1556 1553 1555 1554 1553 1553 1551 1549 1549 1547 1543 1543 1542 1540 1539 1539 1538 1539 1534 1532 1527 1526 1522 1518 1515 1511 1507 1503
1543 1545 1548 1548 1550 1552 1556 1556 1557 1556 1556 1558 1558 1557 1558 1557 1556 1556 1556 1556 1554 1552 1551 1551 1549 1546 1544 1544 1542 1541 1538 1536 1536 1533 1528 1523 1520 1519 1515 1512 1507 1504 1500
1542 1545 1547 1546 1548 1551 1554 1555 1556 1557 1557 1558 1559 1559 1559 1559 1559 1558 1558 1556 1554 1553 1553 1552 1551 1549 1546 1543 1542 1541 1538 1537 1535 1533 1530 1525 1521 1516 1513 1509 1505 1501 1496